Rawlins, WY

6:03 AM MST on February 24, 2017 (GMT -0700)
Rawlins Municipal

Weather History for KRWL - November, 2012

Change the Weather History Date:

Friday, November 30, 2012

  Actual Average Record
Temperature  
Mean Temperature 44 °F 24 °F  
Max Temperature 51 °F 33 °F 57 °F (1999)
Min Temperature 37 °F 14 °F -21 °F (1983)
Degree Days  
Heating Degree Days 21 41  
Month to date heating degree days 802 1046  
Since 1 July heating degree days 1670 2106  
Cooling Degree Days 0 0  
Month to date cooling degree days 0 0  
Year to date cooling degree days 419 186  
Moisture  
Dew Point 26 °F    
Average Humidity 53    
Maximum Humidity 64    
Minimum Humidity 42    
Precipitation  
Precipitation 0.00 in 0.01 in 0.13 in (1986)
Month to date precipitation 0.35 0.55  
Year to date precipitation 4.59 8.82  
Sea Level Pressure  
Sea Level Pressure 29.89 in    
Wind  
Wind Speed 21 mph (SW)    
Max Wind Speed 41 mph    
Max Gust Speed 54 mph    
Visibility 10 miles    
Events Rain    
T = Trace of Precipitation, MM = Missing Value Source: NWS Daily Summary

Daily Weather History Graph

Daily Weather History Graph

Search for Another Location

Airport or City:

Trip Planner

Search our weather history database for the weather conditions in past years. The results will help you decide how hot, cold, wet, or windy it might be!

Date:

Astronomy

Nov. 30, 2012 Rise Set
Actual Time 7:16 AM MST 4:38 PM MST
Civil Twilight 6:45 AM MST 5:09 PM MST
Nautical Twilight 6:10 AM MST 5:44 PM MST
Astronomical Twilight 5:37 AM MST 6:18 PM MST
Moon 6:36 PM MST (11/30) 8:50 AM MST (11/30)
Length of Visible Light 10h 24m
Length of Day
9h 22m
Waning Gibbous, 96% of the Moon is Illuminated
Nov 30
Waning Gibbous
Dec 6
Last Quarter
Dec 13
New
Dec 19
First Quarter
Dec 28
Full

Hourly Weather History & Observations

Time (MST) Temp. Windchill Dew Point Humidity Pressure Visibility Wind Dir Wind Speed Gust Speed Precip Events Conditions
12:53 AM 39.0 °F 31.8 °F 21.9 °F 50% 29.97 in 10.0 mi SSW 11.5 mph - N/A   Clear
1:53 AM 39.0 °F 33.4 °F 23.0 °F 53% 29.99 in 10.0 mi SSW 8.1 mph - N/A   Clear
2:53 AM 37.9 °F 32.1 °F 21.9 °F 53% 29.98 in 10.0 mi SW 8.1 mph - N/A   Clear
3:53 AM 39.0 °F 29.3 °F 24.1 °F 55% 29.94 in 10.0 mi SW 19.6 mph 31.1 mph N/A   Clear
4:53 AM 37.0 °F 28.9 °F 24.1 °F 59% 29.97 in 10.0 mi SSW 12.7 mph - N/A   Clear
5:53 AM 37.9 °F 29.6 °F 25.0 °F 60% 29.97 in 10.0 mi SW 13.8 mph - N/A   Clear
6:53 AM 37.0 °F 27.7 °F 26.1 °F 65% 29.99 in 10.0 mi SW 16.1 mph 21.9 mph N/A   Clear
7:53 AM 39.0 °F 31.8 °F 27.0 °F 62% 30.01 in 10.0 mi SW 11.5 mph - N/A   Clear
8:53 AM 43.0 °F 35.7 °F 28.0 °F 56% 29.97 in 10.0 mi SSW 15.0 mph 21.9 mph N/A   Clear
9:53 AM 46.0 °F 38.8 °F 28.0 °F 50% 29.92 in 10.0 mi SSW 18.4 mph 25.3 mph N/A   Clear
10:53 AM 48.0 °F - 28.0 °F 46% 29.89 in 10.0 mi SW 29.9 mph 39.1 mph N/A   Clear
11:53 AM 48.9 °F - 28.0 °F 44% 29.83 in 10.0 mi SW 32.2 mph 47.2 mph 0.00 in Rain Light Rain
12:53 PM 50.0 °F - 27.0 °F 41% 29.82 in 10.0 mi SW 38.0 mph 47.2 mph 0.00 in   Partly Cloudy
1:53 PM 48.9 °F - 27.0 °F 43% 29.82 in 10.0 mi SW 32.2 mph 43.7 mph 0.00 in   Clear
2:53 PM 48.0 °F - 27.0 °F 44% 29.80 in 10.0 mi SW 29.9 mph 39.1 mph N/A   Clear
3:53 PM 46.9 °F - 27.0 °F 46% 29.81 in 10.0 mi SW 21.9 mph 39.1 mph N/A   Clear
4:53 PM 45.0 °F 37.6 °F 26.1 °F 48% 29.85 in 10.0 mi SW 17.3 mph 23.0 mph N/A   Clear
5:53 PM 46.0 °F 37.6 °F 26.1 °F 46% 29.83 in 10.0 mi SW 24.2 mph 36.8 mph N/A   Clear
6:53 PM 43.0 °F 35.4 °F 27.0 °F 53% 29.84 in 10.0 mi WSW 16.1 mph 24.2 mph N/A   Clear
7:53 PM 44.1 °F 35.7 °F 26.1 °F 49% 29.83 in 10.0 mi SW 20.7 mph 28.8 mph N/A   Clear
8:53 PM 41.0 °F 32.2 °F 26.1 °F 55% 29.85 in 10.0 mi WSW 18.4 mph 26.5 mph N/A   Clear
9:53 PM 44.1 °F 34.4 °F 26.1 °F 49% 29.81 in 10.0 mi SW 27.6 mph 42.6 mph N/A   Mostly Cloudy
10:53 PM 45.0 °F 35.1 °F 27.0 °F 49% 29.80 in 10.0 mi SW 31.1 mph 42.6 mph N/A   Mostly Cloudy